Location: Dompnac
(44.5644°N, 4.1026°E)
Time: 22:23:39
(UTC+00:00)

Cosmos 1626 - Pass Details

Date: 20 January 2021
Orbit: 490 x 494 km, 82.5° (Epoch: 25 February)

Event Time Altitude Azimuth Distance (km) Brightness Sun altitude
Rises 18:11:33 0° 233° (SW) 2,568 6.9 -16.8°
Reaches altitude 10° 18:14:36 10° 261° (W) 1,691 6.1 -17.3°
Maximum altitude 18:16:28 13° 291° (WNW) 1,495 5.3 -17.6°
Drops below altitude 10° 18:18:20 10° 322° (NW) 1,697 5.2 -17.9°
Sets 18:21:25 0° 350° (N) 2,584 5.8 -18.5°
